Location: Newark
(46.4833°N, 6.4167°E)
Time: 20:37:17
(UTC+00:00)

Envisat - Visible Passes

Search period start: 15 December 2019 00:00
Search period end: 25 December 2019 00:00
Orbit: 764 x 766 km, 98.1° (Epoch: 15 December)

Date Brightness Start Highest point End Pass type
(mag) Time Alt. Az. Time Alt. Az. Time Alt. Az.
15 Dec 6.1 04:58:10 10° ENE 05:00:22 13° E 05:02:35 10° ESE visible
15 Dec 3.0 06:34:58 10° NNE 06:40:06 87° WNW 06:45:11 10° SSW visible
15 Dec 4.0 16:14:38 10° ESE 16:18:37 24° ENE 16:22:36 10° N visible
15 Dec 3.8 17:52:22 10° S 17:57:18 52° W 18:02:17 10° NNW visible
16 Dec 4.3 05:58:22 10° NNE 06:03:15 45° E 06:08:05 10° S visible
16 Dec 2.9 17:15:26 10° SSE 17:20:30 77° ENE 17:25:36 10° N visible
16 Dec 5.9 18:57:17 10° WSW 19:00:07 15° W 19:02:56 10° NW visible
17 Dec 5.6 05:22:18 10° NE 05:26:11 22° E 05:30:04 10° SE visible
17 Dec 3.5 16:39:15 10° SE 16:43:52 37° ENE 16:48:32 10° N visible
17 Dec 4.8 18:18:29 10° SSW 18:22:57 31° W 18:27:27 10° NNW visible
18 Dec 3.3 06:23:42 10° NNE 06:28:49 76° ESE 06:33:53 10° S visible
18 Dec 3.4 17:40:58 10° S 17:46:00 65° WSW 17:51:04 10° NNW visible
19 Dec 4.7 05:47:13 10° NNE 05:51:54 36° E 05:56:33 10° SSE visible
19 Dec 3.0 17:04:15 10° SSE 17:09:14 62° ENE 17:14:16 10° N visible
19 Dec 5.6 18:45:12 10° SW 18:48:41 19° W 18:52:12 10° NW visible
20 Dec 5.9 05:11:26 10° NE 05:14:48 17° E 05:18:07 10° SE visible
20 Dec 3.7 16:28:16 10° SE 16:32:40 31° ENE 16:37:06 10° N visible
20 Dec 4.4 18:06:53 10° SSW 18:11:35 38° W 18:16:20 10° NNW visible
21 Dec 3.7 06:12:27 10° NNE 06:17:31 61° E 06:22:31 10° S visible
21 Dec 3.1 17:29:37 10° S 17:34:42 80° WSW 17:39:49 10° NNW visible
21 Dec 6.2 19:13:33 10° W 19:14:32 10° W 19:15:31 10° WNW visible
22 Dec 5.1 05:36:07 10° NE 05:40:32 29° E 05:44:56 10° SSE visible
22 Dec 3.2 16:53:07 10° SE 16:58:00 50° ENE 17:02:54 10° N visible
22 Dec 5.3 18:33:18 10° SW 18:37:17 23° W 18:41:18 10° NW visible
23 Dec 6.1 05:00:45 10° ENE 05:03:22 14° E 05:05:57 10° ESE visible
23 Dec 3.0 06:37:54 10° NNE 06:43:01 81° WNW 06:48:06 10° SSW visible
23 Dec 4.0 17:55:22 10° S 18:00:15 47° W 18:05:10 10° NNW visible
24 Dec 4.1 06:01:15 10° NNE 06:06:12 49° E 06:11:06 10° S visible
24 Dec 2.9 17:18:20 10° SSE 17:23:25 83° ENE 17:28:32 10° NNW visible
24 Dec 6.0 19:00:37 10° WSW 19:03:05 14° W 19:05:35 10° WNW visible
